Location: Łódź
(51.7951°N, 19.4477°E)
Time: 10:58:06
(UTC+01:00)

ISS - Pass Details

Date: 30 January 2019
Orbit: 403 x 411 km, 51.6° (Epoch: 16 February)

Event Time Altitude Azimuth Distance (km) Brightness Sun altitude
Rises 17:26:05 0° 250° (WSW) 2,330 2.4 -9.3°
Reaches altitude 10° 17:28:10 10° 248° (WSW) 1,472 0.6 -9.6°
Maximum altitude 17:31:27 68° 165° (SSE) 445 -3.7 -10.1°
Enters shadow 17:33:58 16° 84° (E) 1,167 -2.2 -10.5°
